Location: Caltech
(34.1382°N, 118.1253°W)
Time: 21:37:33
(UTC-07:00)

SL-16 R/B - Visible Passes

Search period start: 28 July 2014 00:00
Search period end: 07 August 2014 00:00
Orbit: 843 x 846 km, 71.0° (Epoch: 27 July)

Date Brightness Start Highest point End Pass type
(mag) Time Alt. Az. Time Alt. Az. Time Alt. Az.
28 Jul 2.4 20:34:24 10° NNW 20:39:58 56° ENE 20:45:30 10° SE visible
28 Jul 4.5 22:20:10 10° WNW 22:23:30 16° W 22:26:50 10° SW visible
29 Jul 2.5 20:20:16 10° N 20:25:49 53° ENE 20:31:19 10° SE visible
29 Jul 4.5 22:05:54 10° WNW 22:09:23 17° W 22:12:51 10° SW visible
30 Jul 4.5 21:51:38 10° WNW 21:55:15 18° W 21:58:52 10° SW visible
31 Jul 4.5 21:37:23 10° WNW 21:41:07 18° W 21:44:52 10° SW visible
01 Aug 4.5 21:23:07 10° WNW 21:27:00 19° W 21:30:52 10° SW visible
02 Aug 4.6 21:08:53 10° NW 21:12:52 20° W 21:16:51 10° SW visible
03 Aug 4.6 20:54:38 10° NW 20:58:44 21° W 21:02:49 10° SSW visible
04 Aug 4.6 20:40:24 10° NW 20:44:36 22° W 20:48:47 10° SSW visible
05 Aug 4.6 20:26:10 10° NW 20:30:28 23° W 20:34:45 10° SSW visible
06 Aug 4.6 20:11:57 10° NW 20:16:20 24° W 20:20:43 10° SSW visible
